STARLINK-32412, 61680

Orbit data source: Space-Track

STARLINK-32412, 61680 is a payload satellite owned by SpaceX/Seattle (US) in LEO that was launched on Sat, 26 Oct 2024 UTC via an FALCON 9 launch vehicle from the Air Force Eastern Test Range (AFETR). Payload-class satellites include a variety of spacecraft equipped with specific instruments for various scientific and technological missions. These include communications satellites like Starlink; space stations such as the ISS; scientific satellites like the Hubble; Earth observation satellites from companies like Planet Labs, Umbra, and HawkEye 360; GPS; miniature CubeSats for education and research; and military/defense satellites.

Loading next visibility...
Identifier
61680, 2024-193V
Orbit
LEO
Country
Flag of USUS
Related business
Manufacturer
SpaceX/Seattle
Mission
Operational Commercial Communications
Bus & Motor
STARLINK V2M, Unknown motor
Mass
730 kg wet, ~700 kg dry
Launch date (UTC)
2024-10-26 (2 years ago)
Launch vehicle
FALCON 9
Launch site
Air Force Eastern Test Range (AFETR)
Object type
Payload
Rocket body
Debris
Shape & HBR
Box + 2 Pan, 17.7 m
Radar Cross Section
33.884 m², Large (>1 m²)

Expand to show TLE details & history
Last TLE update: 6 hours ago

TLE from 6 hours ago
0 STARLINK-32412
1 61680U 24193V   26127.25003472 -.00012863  00000-0 -40315-3 0  9999
2 61680  53.1594 179.2222 0001214  83.6251 118.9554 15.31721954  5813
Epoch: 2026-05-07T06:00Z
TLE epoch observation values (Epoch: 2026-05-07T06:00:02.999Z)
Latitude
-18.08095°
Longitude
58.18918°
Altitude
476.025 km
Speed
7.628 km/s
True Right ascension
00h 53m 12s
True Declination
-17° 58' 32"
Sunlit
Object was in daylight at epoch
Visualization orbit readout
Latitude
Unknown
Longitude
Unknown
Altitude
Unknown
Speed
Unknown
Apparent Right ascension
Unknown
Apparent Declination
Unknown
Sunlit
N/A
Visualization observer readout
Local Sidereal Time
20:16:39
Azimuth
Unknown
Elevation
Unknown
Doppler factor
Unknown
Orbital elements
Apogee altitude
471.763 km
Perigee altitude
470.1 km
Semi-major axis
6,849.068 km
Eccentricity
0.00012
Inclination
53.1594°
RAAN
179.2222°
Arg. of periapsis
83.6251°
True anomaly
118.96757°
Mean anomaly
118.9554°
Eccentric anomaly
118.96149°
Mean motion
3.82909 °/min
Orbital period
94.02 mins
BSTAR
-0.00040315
Loading maneuver chart data...
Computing Atmospheric mass density...
Loading historical data...
Loading historical data...
Loading historical data...
Loading historical data...
Loading historical data...
Loading historical data...
Loading historical data...

Documentation

Showing up to 5 results
|